Regional Weather Roundup
Issued by NWS Goodland, KS

Home | Current Version | Previous Version | Graphics & Text | Print | Product List | Glossary On
Versions: 1 2 3 4 5 6 7 8 9 10 11 12 13 14 15 16 17 18 19 20 21 22 23 24 25 26 27 28 29 30 31 32 33 34 35 36 37 38 39 40 41 42 43 44 45 46 47 48 49 50
000
ASUS43 KGLD 232059
RWRGLD

GOODLAND FORECAST AREA HOURLY WEATHER ROUNDUP
NATIONAL WEATHER SERVICE GOODLAND KS
300 PM MDT WED JUL 23 2014

...OFFICIAL OBSERVATIONS...

CITY           SKY/WX    TMP DP  RH WIND       PRES   REMARKS
GOODLAND KS    SUNNY     90  61  37 S20G25    30.24F
HILL CITY KS   CLOUDY    87  63  44 SW5       30.17R
IMPERIAL NEB   SUNNY     92  59  33 S13       30.19F
MCCOOK NEB     MOSUNNY   86  64  47 E13       30.19S
AKRON CO       SUNNY     86  64  47 S26G37    30.27F
BURLINGTON CO  SUNNY     87  63  44 SE18G28   30.27F
LIMON CO       MOSUNNY   89  61  38 SE24G35   30.32F
$$

...UNOFFICIAL OBSERVATIONS...

CITY           SKY/WX    TMP DP  RH WIND       PRES   REMARKS
COLBY KS       SUNNY     91  63  38 S7        30.21F
GOVE KS          N/A     89  32  13 MISG        N/A
LENORA KS        N/A     83  32  16 MISG        N/A
NORTON KS      SUNNY     81  61  50 NE6       30.18F
SHARON SPRINGS   N/A     89  67  47 NE9G21      N/A
KIT CARSON CO    N/A     87  66  49 N15G29      N/A
YUMA CO          N/A     85  63  47 SE12G23     N/A
$$



USA.gov is the U.S. government's official web portal to all federal, state and local government web resources and services.